"Pseudo-MPEC" for P10Gux2

Created 2018 Feb 25 15:18:06 UT using Find_Orb

Click here for an explanation of pseudo-MPECs

 
 Astrometry: 
     P10Gux2  C2018 02 10.'Astrometryc(Qm.m'+ZT+eicch#$TVRqtn;TA^bIdL+o?mcxwUF51
     P10Gux2  C2018 02 10^xG%f%^t[jk0_`dZDM]cSh2L5uM4M\riZsI!x-O4QAD6'.q5.iBwF51
     P10Gux2  C2018 02 10Uo2+vXXr!lF$GDewX=rVSSe$YT3wdXFPcBQuT#v#!HHfyZ)q77$VF51
     P10Gux2 KC2018 02 11o8d\:;FLaQi)(]_o8cJ:ej9ytdjeh4equ=!hHEK*ccj2!-\;rMTK291
     P10Gux2 KC2018 02 11!rf:A'qpbiK*kpUv4@FsM)4y0BJ1:fw/]Q*#F%07v@gd8-d2ZGF3291
     P10Gux2 KC2018 02 11WC8h7$?F;KPZN*`N0K?`k-J):4;O6bm_\PY!wtLM.T2o\Bt(ec,H291
     P10Gux2  C2018 02 11.52490 12 01 45.84 +21 15 02.8                UNEOCPI52
     P10Gux2  C2018 02 11.52739 12 01 45.49 +21 15 01.0                UNEOCPI52
     P10Gux2  C2018 02 11.53240 12 01 44.92 +21 14 54.1          20.9 GUNEOCPI52
     P10Gux2 KC2018 02 17#t,04I$M#:#6;1B(?P:h36bir'R$*/xHpc\?AcB[fYPADL#=#q`jL01
     P10Gux2 KC2018 02 17-3%*?]4(56xxL=?5:TUM+vKWyB4J($W+76i0sW9cm7a?/[.#5cPtL01
     P10Gux2 KC2018 02 17:URmwfEOe6@.Gme`Vredacted;2wr+,S9/BV9=pnodF5\LZ1kqQyL01
     P10Gux2  C2018 02 17.45273 11 49 12.44 +19 11 18.7          20.6 GUNEOCPG96
     P10Gux2  C2018 02 17.46060 11 49 11.36 +19 11 08.0          20.8 GUNEOCPG96
     P10Gux2  C2018 02 17.46697 11 49 10.49 +19 10 58.9          20.4 GUNEOCPG96
     P10Gux2  C2018 02 17.47265 11 49 09.56 +19 10 50.4          20.8 GUNEOCPG96
     P10Gux2  C2018 02 19.92554 11 43 17.05 +18 13 18.0          21.0 VSNEOCP033
     P10Gux2  C2018 02 19.92931 11 43 16.48 +18 13 12.7          21.2 VSNEOCP033
     P10Gux2  C2018 02 19.93306 11 43 15.91 +18 13 07.3          20.9 VSNEOCP033
     P10Gux2  C2018 02 19.93682 11 43 15.32 +18 13 01.8          21.2 VSNEOCP033
     P10Gux2  C2018 02 19.94057 11 43 14.76 +18 12 56.3          21.0 VSNEOCP033
     P10Gux2  C2018 02 20.01377 11 43 03.69 +18 11 10.3          21.6 VSNEOCP033
     P10Gux2  C2018 02 20.01752 11 43 03.12 +18 11 04.9          21.0 VSNEOCP033
     P10Gux2  C2018 02 20.02127 11 43 02.54 +18 10 59.3          20.9 VSNEOCP033
     P10Gux2  C2018 02 20.02504 11 43 01.99 +18 10 54.2          21.5 VSNEOCP033
     P10Gux2  C2018 02 20.02879 11 43 01.39 +18 10 48.3          21.0 VSNEOCP033
     P10Gux2  C2018 02 20.03255 11 43 00.86 +18 10 43.0          21.0 VSNEOCP033
     P10Gux2  C2018 02 20.17824 11 42 38.69 +18 07 09.4          20.7 VSNEOCP033
     P10Gux2  C2018 02 20.18199 11 42 38.10 +18 07 04.1          21.0 VSNEOCP033
     P10Gux2  C2018 02 20.18575 11 42 37.53 +18 06 58.3          21.1 VSNEOCP033
     P10Gux2  C2018 02 20.18950 11 42 37.00 +18 06 52.7          20.3 VSNEOCP033
     P10Gux2  C2018 02 20.19326 11 42 36.43 +18 06 47.1          20.8 VSNEOCP033
     P10Gux2  C2018 02 20.19701 11 42 35.84 +18 06 41.8          20.7 VSNEOCP033
     P10Gux2 KC2018 02 21rEX!PUM[t%#*s@!AiegXGm92^dd7\cUn_#l@?LnyOyroTm8?[q@N291
     P10Gux2 KC2018 02 21d,g(J$342,MiRn/$bTo4#I'pBbA7+IXgs6+a$qmR`EI#eW2y5['_291
     P10Gux2 KC2018 02 21XCt41ClR=)7X-bK_J_LMV7_BkNWL35o90*$SPVJ3G(A/-Z1Wt7_*291
     P10Gux2 KC2018 02 22OxLtL)F9?;,Oy0\P@-=g5^PCsaTGymQ(kWq`0Y=bqE!RAAWq*3MQ291
     P10Gux2 KC2018 02 222@\nf9p]SrngidO:Et;E4gk8@uKG7h+T/Uk'_)q$Y1I-'H4;i6`\291
     P10Gux2 KC2018 02 2205-X;EW*.@`y\g9f8qy$t,+B@f0`Huu/-jT-!9;Ayn#f-CYXB]RO291
     P10Gux2 KC2018 02 23huIh;4(c/#rG'#H@rCsfF9NDr,fU_;w4see??OSGlb$XKy[MsSpl291
     P10Gux2 KC2018 02 23?q`G;XT'hmwe[+0oRV11ti\tJdm#Z:v+DFXR(FE%fZAqDj#!4NjK291
     P10Gux2 KC2018 02 23Hn5pqIdGUdk!vw)wvbcV]4M7(L)LQ+@f!kie9D)^6]#2F@i]TC1k291
     P10Gux2 KC2018 02 24xmq'tH2:hh`X-SV7kV=':t:::]Qn_X01_*YLx:^ZGk6^]GUd;OX/291
     P10Gux2 KC2018 02 24C;`7v#QT3bnqu@oQ4.1[yt\I)!3YMVO3H%6y3#;'tj!DB5R-K+/E291
     P10Gux2 KC2018 02 24B2NCPaV#r+k@0'?x_4%YX[Wp/bA;K@]^oZh06F(B7H,rA^W/dkBE291
     P10Gux2 KC2018 02 25HvoX^kM01dHD6k4\M0sPqlKUI5?nW=ShO8YHj@pK`pRCCcpsZby5291
     P10Gux2  C2018 02 25.24742 11 29 21.29 +15 55 26.3          20.6 GUNEOCPG96
     P10Gux2 KC2018 02 25f4/Zk'QDo6((8sbx@Inslk\?%+ER:Ywv1uk72NtJGv3y=6G6\8Lx291
     P10Gux2 KC2018 02 25WBWOM'B6XGTc8f72j8cW7Zm^JOQvN.r+8EbsAxR_y,#7L:$NEOCP291
     P10Gux2  C2018 02 25.25496 11 29 19.99 +15 55 14.0          20.4 GUNEOCPG96
     P10Gux2  C2018 02 25.26135 11 29 18.98 +15 55 03.8          20.0 GUNEOCPG96
     P10Gux2  C2018 02 25.26649 11 29 18.09 +15 54 55.4          20.2 GUNEOCPG96
     P10Gux2  C2018 02 25.31965 11 29 09.19 +15 53 27.3          19.3 GUNEOCPI52
     P10Gux2  C2018 02 25.32041 11 29 09.01 +15 53 26.0          19.6 GUNEOCPI52
     P10Gux2  C2018 02 25.32271 11 29 08.57 +15 53 22.7          20.6 GUNEOCPI52

Station data:
(033) Karl Schwarzschild Observatory, Tautenburg  (N50.980137 E11.711240)
   Germany. 1.3-m Schmidt.
(291) LPL/Spacewatch II  (N31.961626 W111.599100)  US/Arizona.  Observers J.
   V. Scotti, R. S. McMillan. 1.8-m f/2.7 reflector + CCD.
(F51) Pan-STARRS 1, Haleakala  (N20.707234 W156.255910)  US/Hawaii.
   Observers N. Primak, A. Schultz, S. Watters, J. Thiel, T. Goggia. Measurer
   PS1 Science Consortium. 1.8-m Ritchey-Chrétien + CCD.
(G96) Mt. Lemmon Survey  (N32.442751 W110.788720)  US/Arizona.  Observers E.
   J. Christensen, A. R. Gibbs, A. D. Grauer, R. E. Hill, J. A. Johnson, R.
   A. Kowalski, S. M. Larson, F. C. Shelly. 1.5-m reflector + CCD.
(I52) Steward Observatory, Mt. Lemmon Station  (N32.442544 W110.788920)
   US/Arizona.
(L01) Višnjan Observatory, Tican  (N45.290897 E13.749300)  Croatia.

Orbital elements:  P10Gux2
   Perihelion 2018 Apr 14.440839 +/- 0.0737 TT = 10:34:48 (JD 2458222.940839)
Epoch 2018 Feb 25.0 TT = JDT 2458174.5   Earth MOID: 0.7062   Ma: 0.0480
M 348.80705 +/- 0.012               (J2000 ecliptic)          AutoNEOCP
n   0.23106420 +/- 0.000585         Peri.  197.12203 +/- 0.038
a   2.63015253 +/- 0.00444          Node   346.64219 +/- 0.0028
e   0.3590162 +/- 0.000925          Incl.   40.43945 +/- 0.036
P   4.27                   H 19.6   G  0.15   U  7.7  
q 1.68588503 +/- 0.000415    Q 3.57442003 +/- 0.00839
From 55 observations 2018 Feb. 10-25; mean residual 0".32
Residuals in arcseconds: 
180210 F51  .13-  .32-    180219 033  .40-  .06-    180222 291  .21+  .06-    
180210 F51  .18-  .33-    180219 033  .31-  .14-    180223 291  .03-  .25+    
180210 F51  .11-  .24-    180220 033  .01+  .02-    180223 291  .08+  .19+    
180211 291  .06+  .01+    180220 033  .00   .04+    180223 291  .12-  .02+    
180211 291  .03+  .19-    180220 033  .14-  .11-    180224 291  .46-  .37+    
180211 291  .13+  .09-    180220 033  .18+  .28+    180224 291  .09-  .39+    
180211 I52  .53+  .10+    180220 033  .25-  .16-    180224 291  .01+  .53+    
180211 I52  .28-  1.2+    180220 033  .34+  .01+    180225 291  .22-  .26+    
180211 I52  .01-  .13+    180220 033  .23-  .10-    180225 G96  .05-  .50-    
180217 L01  .16-  .17-    180220 033  .55-  .12+    180225 291  .32-  .27+    
180217 L01  .38-  .16+    180220 033  .57-  .13-    180225 291  .28-  .39+    
180217 L01  .05-  .01+    180220 033  .03-  .21-    180225 G96  .52-  .40-    
180217 G96  .04-  .20+    180220 033  .05-  .26-    180225 G96  .42+  .08-    
180217 G96  .61+  .26+    180220 033  .38-  .03-    180225 G96  .06+  .02-    
180217 G96  1.2+  .13-    180221 291  .40+  .05-    180225 I52  1.1+  .38-    
180217 G96  .47-  .85-    180221 291  .09+  .00     180225 I52  .36+  .42-    
180219 033  .01-  .16-    180221 291  .36-  .16+    180225 I52  .38-  .08+    
180219 033  .03-  .01-    180222 291  .02-  .32+    
180219 033  .09-  .01+    180222 291  .10+  .13+    

Ephemerides (geocentric):
Date (UTC) HH   RA              Dec         delta   r     elong  mag " sig PA
---- -- -- --  ------------   ------------  ------ ------ -----  --- ---- ---
2018 02 25 15  11 28 18.500   +15 45 03.13  .75209 1.7276 165.1 20.8  .08 157
2018 02 25 16  11 28 11.597   +15 43 53.56  .75189 1.7275 165.2 20.8  .09 157
2018 02 25 17  11 28 04.690   +15 42 43.93  .75169 1.7275 165.2 20.8  .09 158
2018 02 25 18  11 27 57.778   +15 41 34.23  .75149 1.7274 165.3 20.8  .09 159
2018 02 25 19  11 27 50.863   +15 40 24.46  .75129 1.7273 165.3 20.7  .09 160
2018 02 25 20  11 27 43.944   +15 39 14.64  .75110 1.7273 165.4 20.7  .09 160
2018 02 25 21  11 27 37.020   +15 38 04.75  .75090 1.7272 165.5 20.7  .09 161
2018 02 25 22  11 27 30.093   +15 36 54.80  .75071 1.7271 165.5 20.7  .10 162
2018 02 25 23  11 27 23.161   +15 35 44.78  .75051 1.7270 165.6 20.7  .10 162
2018 02 26 00  11 27 16.225   +15 34 34.70  .75032 1.7270 165.6 20.7  .10 163
2018 02 26 01  11 27 09.286   +15 33 24.56  .75012 1.7269 165.7 20.7  .10 164
2018 02 26 02  11 27 02.342   +15 32 14.36  .74993 1.7268 165.8 20.7  .10 164
2018 02 26 03  11 26 55.394   +15 31 04.09  .74974 1.7268 165.8 20.7  .11 165
2018 02 26 04  11 26 48.443   +15 29 53.77  .74955 1.7267 165.9 20.7  .11 165
2018 02 26 05  11 26 41.487   +15 28 43.38  .74936 1.7266 165.9 20.7  .11 166
2018 02 26 06  11 26 34.528   +15 27 32.92  .74917 1.7266 166.0 20.7  .11 167
2018 02 26 07  11 26 27.564   +15 26 22.41  .74898 1.7265 166.1 20.7  .11 167
2018 02 26 08  11 26 20.597   +15 25 11.83  .74879 1.7264 166.1 20.7  .12 168
2018 02 26 09  11 26 13.626   +15 24 01.19  .74860 1.7263 166.2 20.7  .12 168
2018 02 26 10  11 26 06.651   +15 22 50.49  .74841 1.7263 166.2 20.7  .12 169
2018 02 26 11  11 25 59.672   +15 21 39.72  .74822 1.7262 166.3 20.7  .12 170
2018 02 26 12  11 25 52.689   +15 20 28.90  .74804 1.7261 166.4 20.7  .13 170
2018 02 26 13  11 25 45.703   +15 19 18.01  .74785 1.7261 166.4 20.7  .13 171
2018 02 26 14  11 25 38.712   +15 18 07.06  .74766 1.7260 166.5 20.7  .13 171
2018 02 26 15  11 25 31.718   +15 16 56.05  .74748 1.7259 166.5 20.7  .13 172
2018 02 26 16  11 25 24.721   +15 15 44.97  .74729 1.7259 166.6 20.7  .13 172
2018 02 26 17  11 25 17.719   +15 14 33.84  .74711 1.7258 166.7 20.7  .14 173
2018 02 26 18  11 25 10.714   +15 13 22.64  .74693 1.7257 166.7 20.7  .14 173
2018 02 26 19  11 25 03.705   +15 12 11.39  .74675 1.7256 166.8 20.7  .14 174
2018 02 26 20  11 24 56.692   +15 11 00.07  .74656 1.7256 166.8 20.7  .14 174
2018 02 26 21  11 24 49.676   +15 09 48.69  .74638 1.7255 166.9 20.7  .15 175
2018 02 26 22  11 24 42.656   +15 08 37.24  .74620 1.7254 167.0 20.7  .15 175
2018 02 26 23  11 24 35.632   +15 07 25.74  .74602 1.7254 167.0 20.7  .15 176
2018 02 27 00  11 24 28.605   +15 06 14.18  .74584 1.7253 167.1 20.7  .15 176
2018 02 27 01  11 24 21.574   +15 05 02.55  .74566 1.7252 167.1 20.7  .16 177
2018 02 27 02  11 24 14.539   +15 03 50.87  .74548 1.7252 167.2 20.7  .16 177
2018 02 27 03  11 24 07.501   +15 02 39.12  .74531 1.7251 167.3 20.7  .16 177
2018 02 27 04  11 24 00.460   +15 01 27.31  .74513 1.7250 167.3 20.7  .17 178
2018 02 27 05  11 23 53.415   +15 00 15.45  .74495 1.7250 167.4 20.7  .17 178
2018 02 27 06  11 23 46.366   +14 59 03.52  .74478 1.7249 167.4 20.7  .17 179
2018 02 27 07  11 23 39.314   +14 57 51.53  .74460 1.7248 167.5 20.7  .17 179
2018 02 27 08  11 23 32.259   +14 56 39.48  .74443 1.7247 167.6 20.7  .18   0
2018 02 27 09  11 23 25.200   +14 55 27.37  .74425 1.7247 167.6 20.7  .18   0
2018 02 27 10  11 23 18.137   +14 54 15.20  .74408 1.7246 167.7 20.7  .18   0
2018 02 27 11  11 23 11.071   +14 53 02.97  .74391 1.7245 167.7 20.7  .18   1
2018 02 27 12  11 23 04.002   +14 51 50.68  .74373 1.7245 167.8 20.7  .19   1
2018 02 27 13  11 22 56.929   +14 50 38.33  .74356 1.7244 167.8 20.7  .19   2
2018 02 27 14  11 22 49.853   +14 49 25.92  .74339 1.7243 167.9 20.7  .19   2